EUTELSAT 10A

Last updated on Jan. 19, 2021, 6:23 a.m. UTC

1 34710U 09016A   21018.83121271  .00000070  00000-0  00000-0 0  9995
2 34710   0.0664  26.7116 0005511 273.5854 127.3702  1.00273262 21459
UTC
Height (km)
Latitude
Longitude
Inclination
Orbital Period
UTC large
Height (km)
Speed (km/s)
/
Latitude / Longitude
Inclination (degrees)
Orbital Period (minutes)
Azimuth
Elevation
Range (km)
Doppler Factor
iOS Compass Heading
iOS Angle

Next 30 passes for location: Hong Kong

Rise time Rise Azimuth (degrees) Set time Set Azimuth (degrees) Duration Max altitude (degrees)

No matching passes for this satellites